Location: Charlottesville
(38.0290°N, 78.4770°W)
Time: 03:39:07
(UTC-04:00)

OTV 5 (USA 277) - Pass Details

Date: 08 October 2017
Orbit: 404 x 417 km, 43.0° (Epoch: 07 September)

Event Time Altitude Azimuth Distance (km) Brightness Sun altitude
Rises 19:46:57 0° 218° (SW) 2,341 ? -12.8°
Reaches altitude 10° 19:49:14 10° 206° (SSW) 1,482 ? -13.3°
Maximum altitude 19:52:08 27° 146° (SSE) 826 ? -13.9°
Enters shadow 19:52:56 24° 121° (ESE) 892 ? -14.0°
